Weather History for Harlingen, TX

Change the Weather History Date:

Friday, November 16, 2012

  Actual Average Record
Temperature  
Mean Temperature 68 °F 68 °F  
Max Temperature 74 °F 80 °F 93 °F (2011)
Min Temperature 61 °F 57 °F 30 °F (1936)
Degree Days  
Heating Degree Days 0 2  
Month to date heating degree days 1 13  
Since 1 July heating degree days 5 16  
Cooling Degree Days 3 5  
Month to date cooling degree days 130 104  
Year to date cooling degree days 4657 3880  
Growing Degree Days 18 (Base 50)    
Moisture  
Dew Point 59 °F    
Average Humidity 70    
Maximum Humidity 87    
Minimum Humidity 53    
Precipitation  
Precipitation T in 0.04 in 2.00 in (1932)
Month to date precipitation 0.03 1.05  
Year to date precipitation 13.27 23.47  
Sea Level Pressure  
Sea Level Pressure 30.21 in    
Wind  
Wind Speed 10 mph (NE)    
Max Wind Speed 23 mph    
Max Gust Speed 26 mph    
Visibility 10 miles    
Events      
T = Trace of Precipitation, MM = Missing Value Source: NWS Daily Summary

Daily Weather History Graph

Daily Weather History Graph

Search for Another Location

Airport:

Trip Planner

Search our weather history database for the weather conditions in past years. The results will help you decide how hot, cold, wet, or windy it might be!

Date:

Astronomy

Nov. 16, 2012 Rise Set
Actual Time 6:50 AM CST 5:40 PM CST
Civil Twilight 6:25 AM CST 6:04 PM CST
Nautical Twilight 5:57 AM CST 6:32 PM CST
Astronomical Twilight 5:30 AM CST 7:00 PM CST
Moon 9:41 AM CST (11/16) 8:44 PM CST (11/16)
Length of Visible Light 11h 38m
Length of Day
10h 50m
Waxing Crescent, 12% of the Moon is Illuminated
Nov 16
Waxing Crescent
Nov 20
First Quarter
Nov 28
Full
Dec 6
Last Quarter
Dec 13
New

Hourly Weather History & Observations

Time (CST) Temp. Dew Point Humidity Pressure Visibility Wind Dir Wind Speed Gust Speed Precip Events Conditions
12:52 AM 66.9 °F 64.9 °F 93% 30.17 in 9.0 mi ENE 8.1 mph - 0.00 in   Overcast
1:12 AM 66.2 °F 64.4 °F 94% 30.17 in 9.0 mi ENE 8.1 mph - N/A   Overcast
1:19 AM 68.0 °F 64.4 °F 88% 30.17 in 10.0 mi ENE 9.2 mph - N/A   Overcast
1:52 AM 68.0 °F 64.9 °F 90% 30.17 in 10.0 mi ENE 9.2 mph - N/A   Overcast
2:52 AM 68.0 °F 64.4 °F 88% 30.16 in 10.0 mi NE 6.9 mph - N/A   Overcast
3:40 AM 68.0 °F 64.4 °F 88% 30.16 in 10.0 mi NE 8.1 mph - N/A   Mostly Cloudy
3:52 AM 68.0 °F 64.0 °F 87% 30.16 in 10.0 mi ENE 8.1 mph - N/A   Mostly Cloudy
4:42 AM 68.0 °F 64.4 °F 88% 30.16 in 10.0 mi ENE 8.1 mph - N/A   Overcast
4:52 AM 68.0 °F 64.0 °F 87% 30.16 in 10.0 mi ENE 5.8 mph - N/A   Overcast
5:52 AM 68.0 °F 63.0 °F 84% 30.17 in 10.0 mi ENE 9.2 mph - N/A   Overcast
6:37 AM 68.0 °F 62.6 °F 83% 30.18 in 10.0 mi ENE 8.1 mph - N/A   Overcast
6:52 AM 68.0 °F 62.1 °F 81% 30.18 in 10.0 mi ENE 8.1 mph - N/A   Overcast
7:52 AM 69.1 °F 61.0 °F 75% 30.20 in 10.0 mi NE 10.4 mph - N/A   Overcast
8:52 AM 70.0 °F 60.1 °F 71% 30.22 in 10.0 mi ENE 10.4 mph - N/A   Overcast
9:52 AM 71.1 °F 61.0 °F 70% 30.25 in 10.0 mi NE 8.1 mph - N/A   Overcast
10:52 AM 72.0 °F 57.9 °F 61% 30.25 in 10.0 mi ENE 15.0 mph 23.0 mph N/A   Overcast
11:52 AM 73.0 °F 57.0 °F 57% 30.23 in 10.0 mi ENE 19.6 mph 25.3 mph 0.00 in   Overcast
12:52 PM 73.0 °F 57.0 °F 57% 30.21 in 10.0 mi ENE 19.6 mph 23.0 mph 0.00 in   Overcast
1:52 PM 72.0 °F 55.9 °F 57% 30.20 in 10.0 mi NE 16.1 mph 23.0 mph N/A   Overcast
2:52 PM 71.1 °F 55.0 °F 57% 30.20 in 10.0 mi NE 19.6 mph - N/A   Overcast
3:52 PM 71.1 °F 54.0 °F 55% 30.20 in 10.0 mi NE 15.0 mph - N/A   Overcast
4:52 PM 71.1 °F 53.1 °F 53% 30.22 in 10.0 mi NE 11.5 mph - N/A   Overcast
5:52 PM 69.1 °F 53.1 °F 57% 30.23 in 10.0 mi NE 10.4 mph - N/A   Overcast
6:52 PM 69.1 °F 53.1 °F 57% 30.24 in 10.0 mi NNE 6.9 mph - N/A   Overcast
7:52 PM 68.0 °F 54.0 °F 61% 30.26 in 10.0 mi North 5.8 mph - N/A   Overcast
8:52 PM 66.9 °F 53.1 °F 61% 30.27 in 10.0 mi NNE 6.9 mph - N/A   Overcast
9:52 PM 66.0 °F 54.0 °F 65% 30.28 in 10.0 mi North 6.9 mph - N/A   Overcast
10:52 PM 62.1 °F 52.0 °F 70% 30.28 in 10.0 mi NNW 6.9 mph - N/A   Mostly Cloudy
11:52 PM 62.1 °F 51.1 °F 67% 30.27 in 10.0 mi North 5.8 mph - N/A   Overcast